Location: Forst
(46.9333°N, 15.4333°E)
Time: 06:40:45
(UTC+00:00)

Lacrosse 5 rocket - Pass Details

Date: 25 April 2021
Orbit: 460 x 634 km, 57.0° (Epoch: 12 May)

Event Time Altitude Azimuth Distance (km) Brightness Sun altitude
Rises 22:03:41 0° 302° (WNW) 2,808 5.6 -28.4°
Reaches altitude 10° 22:06:05 10° 292° (WNW) 1,932 4.5 -28.5°
Enters shadow 22:07:34 19° 279° (W) 1,467 3.7 -28.6°
